Regional Weather Roundup
Issued by NWS

Home | Current Version | Previous Version | Graphics & Text | Print | Product List | Glossary On
Versions: 1 2 3 4 5 6 7 8 9 10 11 12 13 14 15 16 17 18 19 20 21 22 23 24 25 26 27 28 29 30 31 32 33 34 35 36 37 38 39 40 41 42 43 44 45 46 47 48 49 50
825
ASUS43 KIND 261759
RWRIN

WEATHER ROUNDUP FOR INDIANA
NATIONAL WEATHER SERVICE INDIANAPOLIS IN
200 PM EDT SUN MAR 26 2017

NOTE: "FAIR" INDICATES FEW OR NO CLOUDS BELOW 12,000 FEET WITH NO
SIGNIFICANT WEATHER AND/OR OBSTRUCTIONS TO VISIBILITY.

* - STATION DOES NOT REPORT WEATHER SUCH AS PRECIPITATION OR FOG.

+ - STATION NOT QUALITY CONTROLLED BY THE NATIONAL WEATHER SERVICE.
    USE DATA WITH CAUTION...ESPECIALLY DEWPOINT AND RELATIVE
    HUMIDITY OBSERVATIONS.

INZ001>003-010>013-019-020-261900-
NORTHWEST INDIANA

CITY           SKY/WX    TMP DP  RH WIND       PRES   REMARKS
GARY /AIRPORT/ PTSUNNY   61  55  82 SW10      29.83F
MONTICELLO +   CLOUDY    60  53  77 S15       29.85F
6HR MIN TEMP:  53; 6HR MAX TEMP:  60; 6HR PCP:  0.13;


$$

LMZ046-743>745-261900-
SOUTHERN LAKE MICHIGAN

STATION/POSITION TIME  TEMP    WIND        PRES    WAVE
                       AIR SEA DIR/SP/G            HT
                 (UTC) (F)     (DEG/KT/KT) (MB)    (FT)
BURNS HARBOR     1740   58     190/  9/ 14 1010.8F
MICHIGAN CITY    1730   55     190/  7/ 10   N/A

$$

INZ004-005-014>016-021>024-261900-
NORTH CENTRAL INDIANA

CITY           SKY/WX    TMP DP  RH WIND       PRES   REMARKS
ELKHART        CLOUDY    55  52  88 SE7       29.87  FOG
GOSHEN         CLOUDY    55  50  83 SE9       29.87F
6HR MIN TEMP:  46; 6HR MAX TEMP:  55;

PERU/GRISSOM   LGT RAIN  61  57  88 SW16      29.86F
SOUTH BEND     RAIN      55  50  83 SE9       29.87F
6HR MIN TEMP:  45; 6HR MAX TEMP:  55; 6HR PCP:  0.21;


$$

INZ006>009-017-018-025>027-261900-
NORTHEAST INDIANA

CITY           SKY/WX    TMP DP  RH WIND       PRES   REMARKS
ANGOLA *+      CLOUDY    46  46 100 SE7       29.90F
FORT WAYNE     LGT RAIN  55  53  93 CALM      29.90F FOG
6HR MIN TEMP:  43; 6HR MAX TEMP:  55; 6HR PCP:  0.32;

KENDALLVILLE + CLOUDY    49  49 100 SE7       29.90F FOG

$$

INZ028-029-035-036-043>045-051>053-261900-
WEST CENTRAL INDIANA

CITY           SKY/WX    TMP DP  RH WIND       PRES   REMARKS
CRAWFORDSVL +  CLOUDY    61  55  79 SW17      29.87F
6HR MIN TEMP:  54; 6HR MAX TEMP:  61; 6HR PCP:  0.02;

LAFAYETTE      CLOUDY    63  54  72 SW15G25   29.86F
6HR MIN TEMP:  56; 6HR MAX TEMP:  63; 6HR PCP:  0.06;

TERRE HAUTE    LGT RAIN  59  53  80 SW17      29.89F
6HR MIN TEMP:  56; 6HR MAX TEMP:  63; 6HR PCP:  0.07;


$$

INZ030>032-037>040-046>048-054>057-064-065-261900-
CENTRAL INDIANA

CITY           SKY/WX    TMP DP  RH WIND       PRES   REMARKS
COLUMBUS       PTSUNNY   64  57  77 S10       29.92F
INDIANAPOLIS   CLOUDY    61  54  77 SW9       29.89F
6HR MIN TEMP:  56; 6HR MAX TEMP:  63; 6HR PCP:  0.38;

-EAGLE CREEK   PTSUNNY   64  54  69 S10G18    29.88F
6HR MIN TEMP:  57; 6HR MAX TEMP:  64; 6HR PCP:  0.29;

KOKOMO +       CLOUDY    62  55  77 S15       29.89F
6HR MIN TEMP:  56; 6HR MAX TEMP:  63; 6HR PCP:  0.15;

SHELBYVILLE    PTSUNNY   65  55  70 S17       29.90F
6HR MIN TEMP:  58; 6HR MAX TEMP:  65; 6HR PCP:  0.09;


$$

INZ033-034-041-042-049-050-058-059-261900-
EAST CENTRAL INDIANA

CITY           SKY/WX    TMP DP  RH WIND       PRES   REMARKS
MUNCIE         LGT RAIN  60  53  77 S10       29.91F
6HR MIN TEMP:  58; 6HR MAX TEMP:  63; 6HR PCP:  0.10;

RICHMOND +     CLOUDY    55  54  94 S16       29.96S

$$

INZ060-061-067>069-081>083-085>088-261900-
SOUTHWEST INDIANA

CITY           SKY/WX    TMP DP  RH WIND       PRES   REMARKS
EVANSVILLE     CLOUDY    62  56  80 SW14      29.93F
6HR MIN TEMP:  57; 6HR MAX TEMP:  62; 6HR PCP:  0.16;

HUNTINGBURG *+ LGT RAIN  61  56  83 W13       29.93S
6HR MIN TEMP:  57; 6HR MAX TEMP:  63; 6HR PCP:  0.09;


$$

INZ062-063-066-070>080-084-089>092-261900-
SOUTH CENTRAL AND SOUTHEAST INDIANA

CITY           SKY/WX    TMP DP  RH WIND       PRES   REMARKS
BLOOMINGTON    HVY RAIN  58  54  86 W9        29.91S VSB 1
6HR MIN TEMP:  57; 6HR MAX TEMP:  62; 6HR PCP:  0.24;

MADISON *+     CLOUDY    64  54  68 S8        29.95F
SEYMOUR +      PTSUNNY   66  54  63 S13       29.92

$$





USA.gov is the U.S. government's official web portal to all federal, state and local government web resources and services.